Fairfield, IA

12:34 AM CST on December 11, 2019 (GMT -0600)
Fairfield Municipal

Weather History for KFFL - October, 2019

Change the Weather History Date:

Tuesday, October 22, 2019

  Actual Average Record
Temperature  
Mean Temperature 47 °F -  
Max Temperature 55 °F 64 °F 80 °F (1991)
Min Temperature 39 °F 41 °F 22 °F (1976)
Degree Days  
Heating Degree Days 18    
Moisture  
Dew Point 36 °F    
Average Humidity 65    
Maximum Humidity 87    
Minimum Humidity 35    
Precipitation  
Precipitation 0.00 in - - ()
Sea Level Pressure  
Sea Level Pressure 29.74 in    
Wind  
Wind Speed 19 mph (West)    
Max Wind Speed 28 mph    
Max Gust Speed 38 mph    
Visibility 10 miles    
Events      
Averages and records for this station are not official NWS values.
T = Trace of Precipitation, MM = Missing Value Source: NWS Daily Summary

Daily Weather History Graph

Daily Weather History Graph

Search for Another Location

Airport or City:

Astronomy

Oct. 22, 2019 Rise Set
Actual Time 7:27 AM CDT 6:17 PM CDT
Civil Twilight 6:58 AM CDT 6:45 PM CDT
Nautical Twilight 6:26 AM CDT 7:17 PM CDT
Astronomical Twilight 5:55 AM CDT 7:49 PM CDT
Moon 12:33 AM CDT (10/22) 3:30 PM CDT (10/22)
Length of Visible Light 11h 46m
Length of Day
10h 50m
Last Quarter, 37% of the Moon is Illuminated
Oct 22
Last Quarter
Oct 27
New
Nov 4
First Quarter
Nov 12
Full
Nov 19
Last Quarter

Hourly Weather History & Observations

Time (CDT) Temp. Windchill Dew Point Humidity Pressure Visibility Wind Dir Wind Speed Gust Speed Precip Events Conditions
12:15 AM 48.2 °F - 44.6 °F 87% 29.55 in 7.0 mi WSW 18.4 mph 34.5 mph N/A   Overcast
12:35 AM 48.2 °F - 44.6 °F 87% 29.55 in 9.0 mi WSW 23.0 mph 33.4 mph N/A   Overcast
12:55 AM 48.2 °F - 44.6 °F 87% 29.55 in 10.0 mi WSW 24.2 mph 29.9 mph N/A   Overcast
1:15 AM 48.2 °F - 44.6 °F 87% 29.55 in 10.0 mi WSW 24.2 mph 32.2 mph N/A   Overcast
1:35 AM 48.2 °F - 42.8 °F 82% 29.56 in 10.0 mi WSW 18.4 mph 27.6 mph N/A   Overcast
1:55 AM 48.2 °F - 42.8 °F 82% 29.56 in 10.0 mi West 20.7 mph 28.8 mph N/A   Overcast
2:15 AM 48.2 °F - 41.0 °F 76% 29.56 in 10.0 mi West 23.0 mph 29.9 mph N/A   Overcast
2:35 AM 48.2 °F - 41.0 °F 76% 29.57 in 10.0 mi West 18.4 mph 38.0 mph N/A   Overcast
2:55 AM 48.2 °F - 41.0 °F 76% 29.57 in 10.0 mi West 19.6 mph 34.5 mph N/A   Overcast
3:15 AM 48.2 °F - 41.0 °F 76% 29.57 in 10.0 mi West 23.0 mph 34.5 mph N/A   Overcast
3:35 AM 48.2 °F - 41.0 °F 76% 29.58 in 10.0 mi West 20.7 mph 32.2 mph N/A   Overcast
3:55 AM 48.2 °F - 41.0 °F 76% 29.59 in 10.0 mi West 20.7 mph 34.5 mph N/A   Overcast
4:15 AM 48.2 °F - 41.0 °F 76% 29.59 in 10.0 mi West 25.3 mph 32.2 mph N/A   Overcast
4:35 AM 46.4 °F 40.1 °F 42.8 °F 87% 29.61 in 5.0 mi West 15.0 mph 31.1 mph N/A   Haze
4:55 AM 46.4 °F 39.0 °F 42.8 °F 87% 29.62 in 7.0 mi West 19.6 mph 38.0 mph N/A   Overcast
5:15 AM 46.4 °F 39.0 °F 41.0 °F 81% 29.62 in 9.0 mi West 19.6 mph 28.8 mph N/A   Overcast
5:35 AM 46.4 °F 39.0 °F 41.0 °F 81% 29.63 in 10.0 mi West 19.6 mph 25.3 mph N/A   Overcast
5:55 AM 48.2 °F - 41.0 °F 76% 29.63 in 10.0 mi West 23.0 mph 34.5 mph N/A   Overcast
6:15 AM 46.4 °F 38.5 °F 41.0 °F 81% 29.65 in 10.0 mi West 21.9 mph 34.5 mph N/A   Overcast
6:35 AM 46.4 °F 39.0 °F 39.2 °F 76% 29.66 in 10.0 mi West 19.6 mph 29.9 mph N/A   Overcast
6:55 AM 46.4 °F 37.5 °F 39.2 °F 76% 29.66 in 10.0 mi West 27.6 mph 35.7 mph N/A   Overcast
7:15 AM 46.4 °F 38.5 °F 39.2 °F 76% 29.67 in 10.0 mi West 21.9 mph 28.8 mph N/A   Overcast
7:35 AM 46.4 °F 38.7 °F 37.4 °F 71% 29.68 in 10.0 mi West 20.7 mph 31.1 mph N/A   Overcast
7:55 AM 46.4 °F 38.5 °F 37.4 °F 71% 29.69 in 10.0 mi West 21.9 mph 28.8 mph N/A   Overcast
8:15 AM 46.4 °F 39.0 °F 39.2 °F 76% 29.70 in 10.0 mi West 19.6 mph 28.8 mph N/A   Overcast
8:35 AM 44.6 °F 36.9 °F 37.4 °F 76% 29.71 in 10.0 mi West 18.4 mph 26.5 mph N/A   Overcast
8:55 AM 46.4 °F 38.1 °F 37.4 °F 71% 29.73 in 10.0 mi West 24.2 mph 33.4 mph N/A   Overcast
9:15 AM 44.6 °F 35.3 °F 37.4 °F 76% 29.73 in 10.0 mi West 26.5 mph 35.7 mph N/A   Overcast
9:35 AM 44.6 °F 37.2 °F 37.4 °F 76% 29.74 in 10.0 mi West 17.3 mph 32.2 mph N/A   Overcast
9:55 AM 46.4 °F 38.5 °F 37.4 °F 71% 29.74 in 10.0 mi West 21.9 mph 27.6 mph N/A   Overcast
10:15 AM 46.4 °F 39.0 °F 37.4 °F 71% 29.75 in 10.0 mi West 19.6 mph 32.2 mph N/A   Overcast
10:35 AM 48.2 °F - 37.4 °F 66% 29.75 in 10.0 mi West 17.3 mph 27.6 mph N/A   Overcast
10:55 AM 48.2 °F - 37.4 °F 66% 29.75 in 10.0 mi West 19.6 mph 28.8 mph N/A   Mostly Cloudy
11:15 AM 48.2 °F - 37.4 °F 66% 29.76 in 10.0 mi West 23.0 mph 33.4 mph N/A   Scattered Clouds
11:35 AM 50.0 °F - 39.2 °F 66% 29.76 in 10.0 mi West 21.9 mph 27.6 mph N/A   Mostly Cloudy
11:55 AM 50.0 °F - 39.2 °F 66% 29.77 in 10.0 mi West 18.4 mph 32.2 mph N/A   Scattered Clouds
12:15 PM 50.0 °F - 39.2 °F 66% 29.77 in 10.0 mi West 20.7 mph 31.1 mph N/A   Scattered Clouds
12:35 PM 51.8 °F - 37.4 °F 58% 29.77 in 10.0 mi West 20.7 mph 31.1 mph N/A   Partly Cloudy
12:55 PM 53.6 °F - 39.2 °F 58% 29.77 in 10.0 mi West 23.0 mph 33.4 mph N/A   Scattered Clouds
1:15 PM 53.6 °F - 37.4 °F 54% 29.76 in 10.0 mi West 25.3 mph 34.5 mph N/A   Mostly Cloudy
1:35 PM 53.6 °F - 37.4 °F 54% 29.76 in 10.0 mi West 24.2 mph 33.4 mph N/A   Mostly Cloudy
1:55 PM 53.6 °F - 37.4 °F 54% 29.77 in 10.0 mi West 21.9 mph 29.9 mph N/A   Scattered Clouds
2:15 PM 55.4 °F - 37.4 °F 51% 29.77 in 10.0 mi West 20.7 mph 31.1 mph N/A   Partly Cloudy
2:35 PM 55.4 °F - 35.6 °F 47% 29.77 in 10.0 mi West 23.0 mph 35.7 mph N/A   Partly Cloudy
2:55 PM 53.6 °F - 33.8 °F 47% 29.77 in 10.0 mi West 18.4 mph 34.5 mph N/A   Partly Cloudy
3:15 PM 55.4 °F - 32.0 °F 41% 29.78 in - West 25.3 mph 36.8 mph N/A   Clear
3:35 PM 53.6 °F - 28.4 °F 38% 29.79 in 10.0 mi West 23.0 mph 29.9 mph N/A   Clear
3:55 PM 53.6 °F - 28.4 °F 38% 29.80 in 10.0 mi West 24.2 mph 31.1 mph N/A   Clear
4:15 PM 53.6 °F - 26.6 °F 35% 29.80 in 10.0 mi West 26.5 mph 34.5 mph N/A   Clear
4:35 PM 53.6 °F - 26.6 °F 35% 29.81 in 10.0 mi West 24.2 mph 36.8 mph N/A   Clear
4:55 PM 53.6 °F - 26.6 °F 35% 29.82 in 10.0 mi West 25.3 mph 35.7 mph N/A   Clear
5:15 PM 51.8 °F - 26.6 °F 38% 29.83 in 10.0 mi West 20.7 mph 33.4 mph N/A   Clear
5:35 PM 51.8 °F - 26.6 °F 38% 29.84 in 10.0 mi West 19.6 mph 28.8 mph N/A   Clear
5:55 PM 51.8 °F - 28.4 °F 41% 29.84 in 10.0 mi West 20.7 mph - N/A   Partly Cloudy
6:15 PM 50.0 °F - 26.6 °F 40% 29.86 in 10.0 mi West 13.8 mph 23.0 mph N/A   Clear
6:35 PM 48.2 °F - 28.4 °F 46% 29.86 in 10.0 mi West 13.8 mph - N/A   Clear
6:55 PM 48.2 °F - 28.4 °F 46% 29.87 in 10.0 mi West 10.4 mph 16.1 mph N/A   Clear
7:15 PM 46.4 °F 42.9 °F 28.4 °F 50% 29.87 in 10.0 mi West 6.9 mph - N/A   Clear
7:35 PM 46.4 °F 42.4 °F 28.4 °F 50% 29.88 in 10.0 mi WSW 8.1 mph - N/A   Clear
7:55 PM 44.6 °F 40.2 °F 28.4 °F 53% 29.88 in 10.0 mi WSW 8.1 mph - N/A   Clear
8:15 PM 44.6 °F 40.2 °F 28.4 °F 53% 29.89 in 10.0 mi WSW 8.1 mph - N/A   Clear
8:35 PM 42.8 °F 38.6 °F 30.2 °F 61% 29.89 in 10.0 mi WSW 6.9 mph - N/A   Clear
8:55 PM 42.8 °F 38.6 °F 30.2 °F 61% 29.89 in 10.0 mi WSW 6.9 mph - N/A   Clear
9:15 PM 42.8 °F 38.6 °F 30.2 °F 61% 29.89 in 10.0 mi SW 6.9 mph - N/A   Clear
9:35 PM 42.8 °F 39.3 °F 30.2 °F 61% 29.89 in 10.0 mi WSW 5.8 mph - N/A   Clear
9:55 PM 41.0 °F 39.0 °F 30.2 °F 65% 29.89 in 10.0 mi SW 3.5 mph - N/A   Clear
10:15 PM 41.0 °F 37.1 °F 30.2 °F 65% 29.90 in 10.0 mi SW 5.8 mph - N/A   Partly Cloudy
10:35 PM 39.2 °F 35.9 °F 32.0 °F 75% 29.90 in 10.0 mi SW 4.6 mph - N/A   Partly Cloudy
10:55 PM 39.2 °F 34.2 °F 32.0 °F 75% 29.89 in 10.0 mi SW 6.9 mph - N/A   Clear
11:15 PM 39.2 °F 34.2 °F 32.0 °F 75% 29.89 in 10.0 mi SW 6.9 mph - N/A   Scattered Clouds
11:35 PM 39.2 °F 35.9 °F 32.0 °F 75% 29.88 in 10.0 mi SW 4.6 mph - N/A   Partly Cloudy
11:55 PM 39.2 °F 35.9 °F 32.0 °F 75% 29.88 in 10.0 mi SSW 4.6 mph - N/A   Partly Cloudy